Location: Seattle
(47.6064°N, 122.3308°W)
Time: 04:57:57
(UTC-08:00)

N. Korean satellite - Pass Details

Date: 01 December 2022
Orbit: 407 x 441 km, 97.3° (Epoch: 05 February)

Event Time Altitude Azimuth Distance (km) Brightness Sun altitude
Rises 17:11:19 0° 191° (SSW) 2,438 10.7 -8.5°
Reaches altitude 10° 17:13:31 10° 204° (SSW) 1,584 9.9 -8.8°
Maximum altitude 17:16:29 27° 265° (W) 906 8.9 -9.3°
Drops below altitude 10° 17:19:31 10° 325° (NW) 1,624 9.4 -9.8°
Sets 17:21:48 0° 338° (NNW) 2,515 10.2 -10.1°
